Location: Newark
(25.6108°S, 54.5803°W)
Time: 10:08:18
(UTC+00:00)

deb Explorer IX - Pass Details

Date: 02 November 2020
Orbit: 538 x 1104 km, 38.8° (Epoch: 23 November)

Event Time Altitude Azimuth Distance (km) Brightness Sun altitude
Rises 15:42:37 0° 336° (NNW) 3,889 ? 78.4°
Reaches altitude 10° 15:45:58 10° 348° (NNW) 2,904 ? 78.0°
Maximum altitude 15:51:32 25° 40° (NE) 1,940 ? 77.4°
Drops below altitude 10° 15:56:44 10° 92° (E) 2,687 ? 76.6°
Sets 15:59:41 0° 105° (ESE) 3,542 ? 76.2°
